{"data":{"norad_id":63742,"intl_designator":"2025-088U","name":"KUIPER-00029","alt_names":[],"object_type":"PAYLOAD","status":"ACTIVE","operator":null,"country":"US","launch_date":"2025-04-28","launch_site_code":"AFETR","launch_vehicle":null,"mission":null,"orbit_class":"UNKNOWN","rcs_meters":null,"size_class":null,"mass_kg":null,"dimensions":null,"purposes":[],"wikipedia_slug":null,"has_3d_model":false,"image_url":null,"decayed_at":null,"tle_current":{"epoch":"2026-05-25T04:13:00.105024Z","epoch_age_seconds":70456,"freshness":"FRESH","line1":"1 63742U 25088U   26145.17569566  .00001643  00000+0  26387-3 0  9990","line2":"2 63742  51.9017 113.4169 0002980  82.6742 277.4558 14.76578045 58930","mean_motion":14.76578045,"eccentricity":0.000298,"inclination_deg":51.9017,"raan_deg":113.4169,"arg_perigee_deg":82.6742,"mean_anomaly_deg":277.4558,"bstar":0.00026387,"rev_number":5893,"period_min":97.522782820464,"perigee_km":638.05499008306,"apogee_km":642.23788701243,"semimajor_km":7018.2834385477,"source":"CELESTRAK","updated_at":"2026-05-25T13:38:03.929437Z"}}}